This demonstration page uses our WeatherBlox Daily Observations layout. Learn more.

39.92423, -83.80882

Hourly Observations for June 4, 2017

Temp ( °F °C ) Dew Point ( °F °C ) Humidity (%) Winds ( mph kmh ) Pressure ( in mb ) Visibility ( mi km ) Precip ( " mm )
12:58 am 00:58 Clear 65 18.5 53 11.8 65 65 SSW 5 7 30.01 1016 10 16.0934 0 0
1:58 am 01:58 Clear 67 19.4 52 11.1 59 59 Calm 30 1016 10 16.0934 0 0
2:58 am 02:58 Clear 66 18.7 54 12 65 65 SSE 5 7 29.98 1015 10 16.0934 0 0
3:58 am 03:58 Clear 64 17.9 53 11.8 68 68 SE 5 7 29.97 1015 10 16.0934 0 0
4:58 am 04:58 Clear 63 17.3 53 11.7 70 70 SE 3 6 29.95 1014 10 16.0934 0 0
5:58 am 05:58 Clear 63 17.1 53 11.5 70 70 SSE 5 7 29.95 1014 10 16.0934 0 0
6:58 am 06:58 Sunny 64 17.5 53 11.9 70 70 Calm 29.96 1015 10 16.0934 0 0
7:58 am 07:58 Sunny 67 19.6 56 13.3 67 67 SSE 3 6 29.97 1015 10 16.0934 0 0
8:58 am 08:58 Sunny 72 22.3 57 14 59 59 SW 5 7 29.96 1015 10 16.0934 0 0
9:58 am 09:58 Mostly Sunny 76 24.7 56 13.5 50 50 SSW 12 19 29.94 1014 10 16.0934 0 0
10:58 am 10:58 Mostly Cloudy 78 25.8 56 13.1 45 45 SW 8 13 29.93 1014 10 16.0934 0 0
11:58 am 11:58 Cloudy 80 26.5 57 13.9 46 46 SW 9 15 29.92 1013 10 16.0934 0 0
12:58 pm 12:58 Sunny 83 28.6 58 14.3 42 42 SW 10 17 29.89 1012 10 16.0934 0 0
1:58 pm 13:58 Sunny 85 29.7 59 14.9 41 41 SW 14 22 29.87 1012 10 16.0934 0 0
2:09 pm 14:09 Sunny 86 30 59 15 40 40 W 14 22 29.87 1012 10 16.0934 0 0
2:15 pm 14:15 Sunny 86 30 59 15 40 40 SW 13 20 29.87 1012 10 16.0934 0 0
2:58 pm 14:58 Partly Cloudy 87 30.3 60 15.3 40 40 SW 14 22 29.84 1011 10 16.0934 0 0
3:58 pm 15:58 Sunny 87 30.6 59 15 39 39 WSW 16 26 29.82 1010 10 16.0934 0 0
4:58 pm 16:58 Sunny 87 30.5 59 15.2 39 39 WSW 8 13 29.8 1009 10 16.0934 0 0
5:58 pm 17:58 Mostly Sunny 86 30.1 58 14.6 39 39 SW 9 15 29.79 1009 10 16.0934 0 0.0254
6:58 pm 18:58 Mostly Cloudy 84 28.7 60 15.6 45 45 SSW 9 15 29.79 1009 10 16.0934 0 0
7:58 pm 19:58 Cloudy 76 24.3 63 17.4 65 65 NNE 10 17 29.82 1010 10 16.0934 0 0
8:04 pm 20:04 Cloudy with Light Showers 75 24 64 18 69 69 NNE 5 7 29.83 1010 10 16.0934 0 0
8:06 pm 20:06 Cloudy with Light Rain 75 24 64 18 69 69 N 6 9 29.84 1011 9 14.48406 0 0
8:09 pm 20:09 Cloudy with Light Thunderstorms 75 24 64 18 69 69 NNE 7 11 29.84 1011 7 11.26538 0 0
8:24 pm 20:24 Cloudy with Rain 72 22 70 21 94 94 ENE 9 15 29.83 1010 3 4.82802 0 0
8:31 pm 20:31 Cloudy with Light Rain 70 21 70 21 100 100 E 8 13 29.83 1010 5 8.0467 0 0
8:34 pm 20:34 Cloudy with Light Rain 70 21 70 21 100 100 E 10 17 29.83 1010 7 11.26538 0 0
8:44 pm 20:44 Cloudy with Light Drizzle 70 21 70 21 100 100 E 9 15 29.81 1010 10 16.0934 0 0
8:46 pm 20:46 Cloudy 70 21 70 21 100 100 E 9 15 29.81 1010 10 16.0934 0 0
8:58 pm 20:58 Cloudy 71 21.4 70 21.2 99 99 E 8 13 29.81 1010 10 16.0934 0.1 2.54
9:58 pm 21:58 Mostly Cloudy 70 20.9 70 20.9 100 100 SSE 7 11 29.81 1010 10 16.0934 0 0
10:58 pm 22:58 Mostly Cloudy 70 21 68 20.1 95 95 SSE 3 6 29.82 1010 10 16.0934 0 0
11:58 pm 23:58 Cloudy 71 21.4 69 20.6 95 95 S 5 7 29.82 1010 10 16.0934 0 0

Powered by AerisWeather